Location: Antichan
(42.9728°N, 0.6667°E)
Time: 14:01:24
(UTC+00:00)

Terra - Pass Details

Date: 15 August 2020
Orbit: 701 x 703 km, 98.2° (Epoch: 25 September)

Event Time Altitude Azimuth Distance (km) Brightness Sun altitude
Exits shadow 22:06:41 69° 300° (WNW) 757 2.0 -27.5°
Drops below altitude 10° 22:11:03 10° 343° (NNW) 2,180 5.3 -27.9°
Sets 22:13:20 0° 345° (NNW) 3,103 6.3 -28.2°
